Location: Callanans Corners
(42.5326°N, 73.8846°W)
Time: 13:41:16
(UTC+00:00)

ARGOS Delta rocket - Pass Details

Date: 06 October 2022
Orbit: 633 x 837 km, 96.4° (Epoch: 28 November)

Event Time Altitude Azimuth Distance (km) Brightness Sun altitude
Rises 23:32:28 0° 10° (N) 3,302 7.2 -12.7°
Reaches altitude 10° 23:34:52 10° 10° (N) 2,341 6.5 -13.1°
Maximum altitude 23:40:03 86° 283° (WNW) 756 4.0 -14.1°
Drops below altitude 10° 23:44:54 10° 194° (SSW) 2,191 6.5 -14.9°
Sets 23:47:05 0° 194° (SSW) 3,076 7.2 -15.3°
